SL-4 R/B (43033 NORAD) Tracking and Keplerian Element Data

This shows tracking and keplerian element data for the satellite.

Feedback or suggestion? Click here.




ElementValue
Catalog43033
NameSL-4 R/B
Epoch Orbit427
Epoch Day364.90476642
Epoch Year2017
RAAN136.3335
Inclination67.1369
Eccentricity0.0453776
Argument of Perigee66.0042
Mean Anonmoly298.7902
Mean Motion15.05100182
Decay Rate0.00037648
L11 43033U 17076B 17364.90476642 .00037648 47617-5 20037-3 0 9996
L22 43033 67.1369 136.3335 0453776 66.0042 298.7902 15.05100182 4274

Live tracking and technical data element details for SL-4 R/B (NORAD 43033). SL-4 R/B can be tracked NOW for your location showing map with azimuth and elevation plus other details from your city location.

Track the satellite on the map from your city or location and see movement details for azimuth, elevation, latitude, longitude, range, height, and movement on the map or in text.







IsCatalogInMostPopularTable: catalog: 43033, numindb: 138
Update: records affected: 1



GetName: 43033 SL-4 R/B

Hit Count: updated at: Mon, 19 Nov 2018 13:52:59 GMT